Asuncion, Paraguay

6:59 AM -03 en Diciembre 17, 2017 (GMT -0300)
Silvio Pettirossi International

Tiempo Historia de SGAS - Abril, 2017

Change the Weather History Date:

Viernes, Abril 21, 2017

  Actual Average Record
Temperature  
Temperatura media 67 ° F -  
Temperatura máxima 71 ° F 79 ° F 91 ° F (2007)
Temperatura mínima 63 ° F 62 ° F 53 ° F (2003)
Cooling Degree Days 2    
Growing Degree Days 17 (Base 50)    
Moisture  
Punto de rocío 64 ° F    
Average Humidity 91    
Maximum Humidity 100    
Minimum Humidity 73    
Precipitación  
Precipitación 0.02 pul 0.16 pul - ()
Presión al nivel del mar  
Presión al nivel del mar 29.91 pul    
Viento  
Velocidad del viento 4 mph ()    
Velocidad máxima del viento 8 mph    
Max Gust Speed -    
Visibilidad 6.8 Millas    
Eventos Lluvia    
Averages and records for this station are not official NWS values.
T = Trace of Precipitation, MM = Missing Value Source: Averaged Metar Reports

Daily Weather History Graph

Daily Weather History Graph

Search for Another Location

Airport or City:

Trip Planner

Search our weather history database for the weather conditions in past years. The results will help you decide how hot, cold, wet, or windy it might be!

Date:

Astronomía

Apr. 21, 2017 Salida Puesta
Hora real 6:07 AM -04 5:29 PM -04
Crepúsculo civil 5:44 AM -04 5:52 PM -04
Crepúsculo náutico 5:17 AM -04 6:19 PM -04
Crepúsculo astronómico 4:51 AM -04 6:46 PM -04
Luna 1:03 AM -04 (4/21) 2:16 PM -04 (4/21)
Horas de luz 12h 07m
Horas de luz
11h 21m
Creciente menguante, 28% of the Moon is Illuminated
Abr 21
Creciente menguante
Abr 26
Nueva
May 2
Cuarto creciente
May 10
Luna llena
May 18
Cuarto menguante

Hourly Weather History & Observations

Hora (-04) Temp. Punto de rocío Humedad Presión Visibilidad Wind Dir Velocidad del viento Velocidad de ráfagas Precip Eventos Condiciones
12:00 AM 64.4 ° F 62.6 ° F 94% 29.80 pul 6.2 mi Variable 5.8 mph - N/A   Muy nublado
1:00 AM 64.4 ° F 62.6 ° F 94% 29.83 pul 6.2 mi Sin viento Sin viento - N/A   Muy nublado
2:00 AM 64 ° F 64 ° F 99% 29.87 pul 6 mi Oeste 6.9 mph - - Lluvia Llovizna débil
2:00 AM 64.4 ° F 62.6 ° F 94% 29.83 pul 5.6 mi Variable 6.9 mph - N/A   Llovizna débil
3:00 AM 64.4 ° F 62.6 ° F 94% 29.83 pul 4.3 mi Variable 4.6 mph - N/A   Llovizna débil
4:00 AM 62.6 ° F 60.8 ° F 94% 29.80 pul 6.2 mi Sin viento Sin viento - N/A   Muy nublado
5:00 AM 63 ° F 62 ° F 97% 29.86 pul 12 mi NO 3.5 mph - -   Parcialmente nublado
5:00 AM 62.6 ° F 62.6 ° F 100% 29.83 pul 6.2 mi Variable 4.6 mph - N/A   Nublado
6:00 AM 62.6 ° F 62.6 ° F 100% 29.83 pul 6.2 mi Variable 3.5 mph - N/A   Muy nublado
7:00 AM 64.4 ° F 62.6 ° F 94% 29.86 pul 6.2 mi Oeste 2.3 mph - N/A   Muy nublado
7:30 AM 64.4 ° F 62.6 ° F 94% 29.89 pul 6.2 mi ONO 4.6 mph - N/A   Muy nublado
8:00 AM 65 ° F 64 ° F 95% 29.93 pul 12 mi ONO 4.6 mph - -   Muy nublado
8:00 AM 64.4 ° F 62.6 ° F 94% 29.89 pul 6.2 mi Variable 4.6 mph - N/A   Muy nublado
8:30 AM 66.2 ° F 64.4 ° F 94% 29.92 pul 6.2 mi Variable 3.5 mph - N/A   Muy nublado
9:00 AM 66.2 ° F 64.4 ° F 94% 29.92 pul 6.2 mi ONO 5.8 mph - N/A   Nublado
9:30 AM 68.0 ° F 64.4 ° F 88% 29.89 pul 6.2 mi Variable 3.5 mph - N/A   Muy nublado
10:00 AM 69.8 ° F 64.4 ° F 83% 29.92 pul 6.2 mi Variable 4.6 mph - N/A   Muy nublado
11:00 AM 68 ° F 64 ° F 85% 29.96 pul 12 mi ONO 8.1 mph - -   Nublado
11:00 AM 68.0 ° F 62.6 ° F 83% 29.92 pul 6.2 mi ONO 8.1 mph - N/A   Nublado
11:37 AM 68.0 ° F 64.4 ° F 88% 29.92 pul 2.5 mi NO 5.8 mph - N/A   Llovizna
12:00 PM 66.2 ° F 64.4 ° F 94% 29.92 pul 4.3 mi ONO 5.8 mph - N/A   Llovizna
12:10 PM 68.0 ° F 64.4 ° F 88% 29.89 pul 6.2 mi NO 6.9 mph - N/A   Muy nublado
1:00 PM 71.6 ° F 66.2 ° F 83% 29.89 pul 6.2 mi Variable 5.8 mph - N/A   Muy nublado
2:00 PM 71 ° F 64 ° F 73% 29.93 pul 12 mi Oeste 5.8 mph - -   Muy nublado
2:00 PM 71.6 ° F 64.4 ° F 78% 29.89 pul 6.2 mi Variable 5.8 mph - N/A   Muy nublado
3:00 PM 71.6 ° F 66.2 ° F 83% 29.89 pul 6.2 mi Variable 4.6 mph - N/A   Muy nublado
4:00 PM 71.6 ° F 66.2 ° F 83% 29.89 pul 6.2 mi Variable 4.6 mph - N/A   Muy nublado
5:00 PM 71 ° F 66 ° F 80% 29.94 pul 12 mi SO 3.5 mph - -   Muy nublado
5:00 PM 71.6 ° F 66.2 ° F 83% 29.89 pul 6.2 mi SO 3.5 mph - N/A   Muy nublado
6:00 PM 69.8 ° F 66.2 ° F 88% 29.92 pul 6.2 mi SO 4.6 mph - N/A   Muy nublado
6:17 PM 69.8 ° F 66.2 ° F 88% 29.92 pul 5.6 mi SO 5.8 mph - N/A   Llovizna débil
7:00 PM 68.0 ° F 66.2 ° F 94% 29.92 pul 6.2 mi Sur 4.6 mph - N/A   Nubes dispersas
8:00 PM 67 ° F 66 ° F 96% 29.98 pul 12 mi Sin viento Sin viento - -   Parcialmente nublado
8:00 PM 66.2 ° F 66.2 ° F 100% 29.95 pul - Sin viento Sin viento - N/A   Desconocido
9:00 PM 64.4 ° F 64.4 ° F 100% 29.98 pul - Sur 2.3 mph - N/A   Desconocido
10:00 PM 64.4 ° F 62.6 ° F 94% 30.01 pul 5.6 mi SSE 3.5 mph - N/A   Desconocido
10:13 PM 64.4 ° F 64.4 ° F 100% 30.01 pul 6.2 mi Sur 3.5 mph - N/A   Parcialmente nublado
11:00 PM 65 ° F 64 ° F 96% 30.02 pul 4 mi Sin viento Sin viento - -   Neblina
11:00 PM 64.4 ° F 64.4 ° F 100% 30.01 pul 4.3 mi Sin viento Sin viento - N/A   Nubes dispersas